Location: Akdamlar
(36.8729°N, 30.5187°E)
Time: 19:05:33
(UTC+00:00)

Meteor 2-13 Rocket - Pass Details

Date: 18 September 2020
Orbit: 936 x 958 km, 82.5° (Epoch: 26 October)

Event Time Altitude Azimuth Distance (km) Brightness Sun altitude
Rises 18:16:29 0° 354° (N) 3,645 7.9 -27.2°
Reaches altitude 10° 18:19:00 10° 356° (N) 2,694 7.1 -27.6°
Enters shadow 18:24:56 77° 53° (NE) 983 4.3 -28.7°
